RH
91 88 88 91 93 91 90 85 90 76 83 69 58 53 49 49 44 44 44 46 48 50 58 60 70 91 98 98 90 96 92 94 89 80 76 65 45 35 28 22 26 26 25 29
92 86 85 83 78 80 79 80 77 65 56 49 44 39 38 45 54 55 57 49 46 52 55 66 87 95 99 91 93 96 95 98 90 84 70 43 31 26 25 25 26 27 29 29
85 81 79 75 70 67 60 52 49 45 36 36 39 43 44 55 60 64 62 57 50 46 54 75 92 98 98 97 99 99 97 88 82 71 48 39 35 31 28 30 28 27 30 31
91 82 86 66 59 48 39 38 28 31 36 37 44 43 44 57 57 57 62 55 50 50 58 80 95 98 98 98 99 97 91 85 78 66 52 45 46 39 36 31 28 29 31 35
93 86 69 50 40 33 30 26 28 35 32 32 37 47 60 65 68 72 64 58 58 59 76 96 97 98 98 95 95 93 89 83 76 62 54 54 52 43 40 34 32 31 32 38
82 66 45 28 30 31 32 34 31 34 36 43 50 57 58 70 80 72 64 65 74 85 95 95 96 96 93 99 97 90 77 64 59 58 56 52 49 47 42 39 36 34 36 41
55 50 33 22 31 36 40 28 30 35 40 46 53 60 62 71 78 82 88 94 96 97 95 92 92 90 82 77 71 63 59 55 51 49 45 45 44 44 44 44 41 39 38 43
46 50 43 27 37 37 26 28 35 41 45 48 54 64 69 75 77 80 90 92 89 87 87 84 81 77 70 66 64 57 49 43 49 47 48 48 48 48 49 50 48 46 45 48
29 26 21 27 25 25 26 33 39 43 46 55 58 65 70 78 76 80 80 83 81 77 70 67 63 57 52 44 37 34 33 34 34 33 38 50 55 56 57 59 59 59 55 54
26 20 25 27 28 29 31 36 40 47 50 54 61 66 72 75 73 73 73 70 68 62 57 53 47 43 41 37 35 33 30 29 29 28 28 31 37 47 65 73 70 69 67 65
30 25 26 26 28 31 37 40 46 55 58 58 64 65 68 72 72 71 62 52 50 51 49 50 48 42 36 35 34 32 31 30 29 29 28 30 33 38 53 77 77 76 72 83
26 23 28 29 34 38 42 46 54 60 61 62 68 68 67 65 62 57 48 44 43 44 47 50 48 41 38 37 35 34 33 32 30 29 29 32 34 37 47 69 82 79 76 91
27 30 34 37 39 43 48 59 64 64 66 71 72 71 70 66 58 46 43 45 45 46 47 47 46 44 41 37 37 36 35 34 32 32 32 33 35 39 44 58 84 83 83 94
39 42 44 45 46 50 62 70 68 66 71 75 76 74 74 73 71 63 56 52 51 51 53 52 49 46 41 38 36 36 36 35 34 34 35 36 38 40 48 54 76 88 84 92
42 46 50 52 55 65 71 76 77 76 78 78 80 81 80 80 78 77 75 70 68 67 69 67 62 56 49 44 39 38 38 38 36 36 37 40 41 44 49 57 66 88 86 88
51 55 56 63 71 76 77 77 77 86 89 90 91 91 92 93 93 91 89 87 83 81 79 75 69 62 57 51 45 40 36 36 37 37 37 40 42 46 51 59 65 81 91 84
59 66 70 74 78 81 88 92 95 97 96 96 97 96 97 98 97 96 92 89 86 84 84 82 78 73 67 59 53 46 40 36 33 36 37 39 43 47 54 62 69 81 88 86
64 65 68 73 81 89 93 96 95 93 93 93 95 96 96 97 96 95 93 92 87 83 78 77 76 74 72 66 60 54 48 40 35 34 35 38 41 48 55 67 75 84 85 89
65 70 77 84 88 90 95 96 95 96 98 93 97 95 93 92 92 90 90 89 87 80 80 80 80 78 72 69 64 60 54 46 40 37 35 36 39 46 56 69 79 90 89 91
81 84 83 86 87 86 85 86 86 83 92 91 82 85 85 83 81 80 82 84 85 80 78 78 73 69 69 68 66 63 60 54 50 45 39 37 39 42 54 66 85 94 93 92
83 83 81 77 74 78 81 80 79 80 80 79 79 81 81 79 81 84 86 88 88 88 87 85 79 70 64 61 61 61 58 55 53 51 50 42 42 43 49 64 84 97 94 89
81 83 81 76 78 79 81 81 83 86 90 90 89 89 89 86 81 78 78 81 82 82 82 80 77 73 70 65 59 56 54 52 52 52 52 52 46 45 48 59 79 96 96 89
69 71 74 74 73 71 69 68 67 68 65 67 67 67 68 69 69 67 62 65 64 63 63 62 63 61 60 61 61 58 54 51 48 47 47 52 54 50 50 53 77 93 97 92
53 53 54 52 50 50 50 56 56 60 62 65 67 69 69 69 65 67 68 64 61 59 56 54 51 49 47 44 46 51 52 50 46 45 44 46 51 57 52 51 71 95 98 95
43 47 48 48 52 55 55 54 54 54 52 51 52 52 53 55 58 53 54 53 53 52 50 47 45 42 39 37 35 34 39 44 45 42 41 42 47 52 54 48 62 96 98 98
46 50 52 54 58 58 59 60 61 62 63 63 64 67 67 69 69 69 68 68 67 65 63 61 60 59 55 48 39 33 32 36 41 42 40 40 43 47 52 49 52 91 98 98
47 49 50 55 59 61 64 66 67 67 68 67 65 67 68 71 75 80 83 85 86 85 84 82 78 72 65 57 51 45 34 32 36 41 42 39 39 41 47 51 46 77 98 98